Whitefield, NH

1:06 AM EST on February 25, 2018 (GMT -0500)
Mount Washington Regional

Weather History for KHIE - March, 2013

Change the Weather History Date:

Saturday, March 16, 2013

  Actual Average Record
Temperature  
Mean Temperature 20 °F -  
Max Temperature 26 °F 33 °F 62 °F (2016)
Min Temperature 12 °F 12 °F -2 °F (2015)
Degree Days  
Heating Degree Days 46    
Moisture  
Dew Point 13 °F    
Average Humidity 71    
Maximum Humidity 86    
Minimum Humidity 46    
Precipitation  
Precipitation 0.01 in - - ()
Sea Level Pressure  
Sea Level Pressure 29.77 in    
Wind  
Wind Speed 5 mph (WNW)    
Max Wind Speed 12 mph    
Max Gust Speed 17 mph    
Visibility 8 miles    
Events Snow    
Averages and records for this station are not official NWS values.
T = Trace of Precipitation, MM = Missing Value Source: NWS Daily Summary

Daily Weather History Graph

Daily Weather History Graph

Search for Another Location

Airport or City:

Trip Planner

Search our weather history database for the weather conditions in past years. The results will help you decide how hot, cold, wet, or windy it might be!

Date:

Astronomy

Mar. 16, 2013 Rise Set
Actual Time 6:56 AM EDT 6:53 PM EDT
Civil Twilight 6:27 AM EDT 7:22 PM EDT
Nautical Twilight 5:53 AM EDT 7:56 PM EDT
Astronomical Twilight 5:19 AM EDT 8:31 PM EDT
Moon 9:12 AM EDT (3/16) No Moon Set
Length of Visible Light 12h 55m
Length of Day
11h 57m
Waxing Crescent, 23% of the Moon is Illuminated
Mar 16
Waxing Crescent
Mar 19
First Quarter
Mar 27
Full
Apr 3
Last Quarter
Apr 10
New

Hourly Weather History & Observations

Time (EDT) Temp. Windchill Dew Point Humidity Pressure Visibility Wind Dir Wind Speed Gust Speed Precip Events Conditions
12:52 AM 23.0 °F 18.4 °F 15.1 °F 72% 29.69 in 10.0 mi West 3.5 mph - N/A   Overcast
1:48 AM 23.0 °F 18.4 °F 17.6 °F 80% 29.66 in 10.0 mi West 3.5 mph - N/A   Mostly Cloudy
1:52 AM 23.0 °F 18.4 °F 17.1 °F 78% 29.71 in 10.0 mi West 3.5 mph - N/A   Mostly Cloudy
2:24 AM 23.0 °F 18.4 °F 15.8 °F 74% 29.66 in 10.0 mi WSW 3.5 mph - N/A   Overcast
2:52 AM 23.0 °F 18.4 °F 17.1 °F 78% 29.72 in 5.0 mi West 3.5 mph - 0.00 in Snow Light Snow
3:52 AM 23.0 °F 17.0 °F 18.0 °F 81% 29.73 in 9.0 mi WSW 4.6 mph - 0.00 in Snow Light Snow
3:59 AM 23.0 °F 18.4 °F 17.6 °F 80% 29.68 in 9.0 mi West 3.5 mph - 0.00 in Snow Light Snow
4:25 AM 23.0 °F 15.8 °F 17.6 °F 80% 29.69 in 2.5 mi NNW 5.8 mph - 0.00 in Snow Light Snow
4:28 AM 23.0 °F 13.9 °F 17.6 °F 80% 29.69 in 1.5 mi NNW 8.1 mph - 0.00 in Snow Light Snow
4:52 AM 21.9 °F 10.4 °F 18.0 °F 85% 29.75 in 1.8 mi WNW 11.5 mph - 0.01 in Snow Light Snow
5:01 AM 21.2 °F 13.6 °F 17.6 °F 86% 29.70 in 2.0 mi WNW 5.8 mph - 0.00 in Snow Light Snow
5:19 AM 21.2 °F 12.6 °F 17.6 °F 86% 29.71 in 1.5 mi WNW 6.9 mph - 0.00 in Snow Light Snow
5:28 AM 21.2 °F 10.9 °F 17.6 °F 86% 29.71 in 1.0 mi North 9.2 mph 17.3 mph 0.00 in Snow Light Snow
5:35 AM 21.2 °F 10.9 °F 15.8 °F 80% 29.71 in 1.8 mi North 9.2 mph - 0.00 in Snow Light Snow
5:37 AM 21.2 °F 10.9 °F 15.8 °F 80% 29.71 in 2.0 mi North 9.2 mph - 0.00 in Snow Light Snow
5:48 AM 19.4 °F 11.5 °F 15.8 °F 86% 29.72 in 4.0 mi North 5.8 mph - 0.00 in Snow Light Snow
5:52 AM 19.9 °F 14.9 °F 15.1 °F 81% 29.77 in 4.0 mi Variable 3.5 mph - 0.00 in Snow Light Snow
6:52 AM 19.0 °F - 14.0 °F 81% 29.79 in 10.0 mi Calm Calm - 0.00 in   Overcast
7:52 AM 19.0 °F - 12.9 °F 77% 29.81 in 10.0 mi Calm Calm - 0.00 in   Overcast
8:21 AM 17.6 °F 9.3 °F 10.4 °F 73% 29.77 in 10.0 mi WNW 5.8 mph - N/A   Scattered Clouds
8:52 AM 19.9 °F 10.1 °F 10.0 °F 65% 29.82 in 10.0 mi WNW 8.1 mph - N/A   Clear
9:52 AM 19.9 °F 11.1 °F 9.0 °F 62% 29.83 in 10.0 mi WNW 6.9 mph - N/A   Overcast
9:59 AM 19.4 °F 11.5 °F 8.6 °F 63% 29.78 in 10.0 mi NW 5.8 mph - N/A   Overcast
10:52 AM 19.9 °F 13.4 °F 10.9 °F 68% 29.83 in 10.0 mi WNW 4.6 mph - N/A   Mostly Cloudy
11:52 AM 21.9 °F 11.7 °F 10.0 °F 60% 29.83 in 10.0 mi WNW 9.2 mph - 0.00 in   Unknown
12:52 PM 23.0 °F 14.7 °F 8.1 °F 53% 29.83 in 10.0 mi NW 6.9 mph - N/A   Overcast
1:52 PM 24.1 °F 16.0 °F 8.1 °F 51% 29.82 in 10.0 mi NW 6.9 mph - N/A   Overcast
2:52 PM 24.1 °F 19.7 °F 7.0 °F 48% 29.82 in 10.0 mi WNW 3.5 mph - N/A   Overcast
3:52 PM 25.0 °F 19.3 °F 8.1 °F 49% 29.81 in 10.0 mi West 4.6 mph - N/A   Overcast
4:52 PM 25.0 °F 17.1 °F 7.0 °F 46% 29.80 in 10.0 mi NW 6.9 mph - N/A   Mostly Cloudy
5:52 PM 25.0 °F 18.1 °F 8.1 °F 49% 29.80 in 10.0 mi WNW 5.8 mph - N/A   Mostly Cloudy
6:52 PM 24.1 °F 16.0 °F 9.0 °F 53% 29.82 in 10.0 mi NW 6.9 mph - N/A   Overcast
7:52 PM 23.0 °F 18.4 °F 9.0 °F 55% 29.84 in 10.0 mi NW 3.5 mph - N/A   Mostly Cloudy
8:52 PM 21.9 °F - 9.0 °F 58% 29.85 in 10.0 mi Calm Calm - N/A   Overcast
9:52 PM 18.0 °F - 10.0 °F 71% 29.88 in 10.0 mi Calm Calm - N/A   Clear
10:52 PM 14.0 °F - 8.1 °F 77% 29.89 in 10.0 mi Calm Calm - N/A   Partly Cloudy
11:52 PM 12.9 °F - 8.1 °F 81% 29.91 in 10.0 mi Calm Calm - N/A   Overcast